Simultaneous Nadir Overpasses (SNOs) Predictions

Prediction of SNOs between NOAA-19 and NPP Satellite Orbit:

Table of predicted SNOs for the next 14.0 days since TLE Epoch: 8/20/2015
Index Date (NOAA-19) Time (NOAA-19) Lat,Lon (NOAA-19) SZA (NOAA-19 ) Date (NPP) Time (NPP) Lat,Lon (NPP) SZA (NPP ) Distance(km) Time Diff (sec)
1 09/01/2015 06:07:32 -81.04,-144.89 103.72 09/01/2015 06:08:38 -81.04,-144.85 103.76 0.84 66
2 09/01/2015 06:58:29 81.04, 22.39 76.30 09/01/2015 06:59:23 81.04, 22.46 76.26 1.16 54
3 09/01/2015 07:49:34 -81.04,-170.20 103.72 09/01/2015 07:50:08 -81.04,-170.29 103.72 1.60 34
4 09/01/2015 08:40:31 81.04, -2.91 76.30 09/01/2015 08:40:53 81.04, -2.99 76.30 1.29 22
5 09/01/2015 09:31:37 -81.04, 164.11 103.67 09/01/2015 09:31:38 -81.04, 164.27 103.69 2.69 1
6 09/01/2015
